Location: Emblem
(62.4273°N, 6.4710°E)
Time: 15:45:50
(UTC+02:00)

Altair - Pass Details

Date: 11 February 2023
Orbit: 1501 x 1682 km, 47.2° (Epoch: 31 March)

Event Time Altitude Azimuth Distance (km) Brightness Sun altitude
Rises 18:29:16 0° 219° (SW) 4,722 10.9 -10.1°
Reaches altitude 10° 18:32:53 10° 208° (SSW) 3,768 10.1 -10.6°
Maximum altitude 18:40:22 27° 156° (SSE) 2,732 8.7 -11.4°
Enters shadow 18:47:38 11° 106° (ESE) 3,781 9.0 -12.2°
